Akron Canton, OH

5:21 AM EDT on August 23, 2017 (GMT -0400)
Akron-Canton Regional

Weather History for KCAK - August, 2013

Change the Weather History Date:

Thursday, August 15, 2013

  Actual Average Record
Temperature  
Mean Temperature 61 °F 71 °F  
Max Temperature 73 °F 81 °F 95 °F (1944)
Min Temperature 49 °F 61 °F 47 °F (1964)
Degree Days  
Heating Degree Days 4 0  
Month to date heating degree days 8 0  
Since 1 June heating degree days 40 55  
Since 1 July heating degree days 13 6  
Cooling Degree Days 0 6  
Month to date cooling degree days 66 99  
Year to date cooling degree days 605 498  
Since 1 June cooling degree days 499 456  
Growing Degree Days 10 (Base 50)    
Moisture  
Dew Point 49 °F    
Average Humidity 67    
Maximum Humidity 93    
Minimum Humidity 41    
Precipitation  
Precipitation 0.00 in 0.11 in 1.31 in (1992)
Month to date precipitation 0.95 1.76  
Year to date precipitation 26.23 25.40  
Snow  
Snow 0.00 in 0.00 in - ()
Month to date snowfall 0.0 0.0  
Since 1 June snowfall 0.0 0.0  
Since 1 July snowfall 0.0 0.0  
Snow Depth 0.00 in    
Sea Level Pressure  
Sea Level Pressure 30.17 in    
Wind  
Wind Speed 3 mph (NW)    
Max Wind Speed 9 mph    
Max Gust Speed -    
Visibility 9 miles    
Events      
T = Trace of Precipitation, MM = Missing Value Source: NWS Daily Summary

Daily Weather History Graph

Daily Weather History Graph

Search for Another Location

Airport or City:

Trip Planner

Search our weather history database for the weather conditions in past years. The results will help you decide how hot, cold, wet, or windy it might be!

Date:

Astronomy

Aug. 15, 2013 Rise Set
Actual Time 6:35 AM EDT 8:23 PM EDT
Civil Twilight 6:06 AM EDT 8:53 PM EDT
Nautical Twilight 5:30 AM EDT 9:28 PM EDT
Astronomical Twilight 4:52 AM EDT 10:07 PM EDT
Moon 3:40 PM EDT (8/15) 12:43 AM EDT (8/15)
Length of Visible Light 14h 46m
Length of Day
13h 47m
Waxing Gibbous, 64% of the Moon is Illuminated
Aug 15
Waxing Gibbous
Aug 20
Full
Aug 28
Last Quarter
Sep 5
New
Sep 12
First Quarter

Hourly Weather History & Observations

Time (EDT) Temp. Dew Point Humidity Pressure Visibility Wind Dir Wind Speed Gust Speed Precip Events Conditions
12:51 AM 54.0 °F 48.0 °F 80% 30.17 in 10.0 mi North 4.6 mph - N/A   Partly Cloudy
1:51 AM 54.0 °F 48.9 °F 83% 30.17 in 9.0 mi Calm Calm - N/A   Clear
2:51 AM 51.1 °F 48.0 °F 89% 30.17 in 8.0 mi Calm Calm - N/A   Clear
3:51 AM 52.0 °F 48.9 °F 89% 30.17 in 7.0 mi Calm Calm - N/A   Clear
4:51 AM 50.0 °F 48.0 °F 93% 30.17 in 6.0 mi Calm Calm - N/A   Clear
5:51 AM 48.9 °F 46.9 °F 93% 30.18 in 5.0 mi Calm Calm - N/A   Clear
6:51 AM 52.0 °F 48.0 °F 86% 30.17 in 6.0 mi Calm Calm - N/A   Clear
7:51 AM 55.0 °F 50.0 °F 83% 30.19 in 6.0 mi Calm Calm - N/A   Haze
8:51 AM 59.0 °F 52.0 °F 78% 30.21 in 8.0 mi West 3.5 mph - N/A   Partly Cloudy
9:51 AM 64.0 °F 52.0 °F 65% 30.22 in 10.0 mi WSW 4.6 mph - N/A   Scattered Clouds
10:51 AM 66.0 °F 48.9 °F 54% 30.20 in 10.0 mi Calm Calm - N/A   Scattered Clouds
11:51 AM 66.9 °F 48.0 °F 51% 30.20 in 10.0 mi Variable 3.5 mph - N/A   Scattered Clouds
12:51 PM 68.0 °F 48.0 °F 49% 30.19 in 10.0 mi South 9.2 mph - N/A   Mostly Cloudy
1:51 PM 70.0 °F 46.9 °F 44% 30.17 in 10.0 mi Variable 4.6 mph - N/A   Mostly Cloudy
2:51 PM 70.0 °F 46.0 °F 42% 30.16 in 10.0 mi Calm Calm - N/A   Mostly Cloudy
3:51 PM 70.0 °F 46.9 °F 44% 30.14 in 10.0 mi West 4.6 mph - N/A   Mostly Cloudy
4:51 PM 72.0 °F 48.9 °F 44% 30.13 in 10.0 mi West 8.1 mph - N/A   Mostly Cloudy
5:51 PM 72.0 °F 48.0 °F 43% 30.13 in 10.0 mi NW 4.6 mph - N/A   Mostly Cloudy
6:51 PM 71.1 °F 46.9 °F 42% 30.13 in 10.0 mi West 3.5 mph - N/A   Mostly Cloudy
7:51 PM 64.9 °F 48.9 °F 56% 30.14 in 10.0 mi NNW 4.6 mph - N/A   Mostly Cloudy
8:51 PM 64.0 °F 46.9 °F 54% 30.14 in 10.0 mi NNW 3.5 mph - N/A   Mostly Cloudy
9:51 PM 60.1 °F 48.9 °F 67% 30.16 in 10.0 mi Calm Calm - N/A   Mostly Cloudy
10:51 PM 57.0 °F 48.9 °F 74% 30.16 in 10.0 mi North 5.8 mph - N/A   Mostly Cloudy
11:51 PM 57.0 °F 51.1 °F 81% 30.15 in 10.0 mi NE 4.6 mph - N/A   Overcast